Regional Weather Roundup
Issued by NWS

Home | Current Version | Previous Version | Text Only | Print | Product List | Glossary Off
Versions: 1 2 3 4 5 6 7 8 9 10 11 12 13 14 15 16 17 18 19 20 21 22 23 24 25 26 27 28 29 30 31 32 33 34 35 36 37 38 39 40 41 42 43 44 45 46 47 48 49 50

000
ASUS43 KLMK 020610
RWRKY
KENTUCKY REGIONAL WEATHER ROUNDUP
NATIONAL WEATHER SERVICE LOUISVILLE KY
200 AM EDT THU JUL 02 2015

NOTE "FAIR" INDICATES FEW OR NO CLOUDS BELOW 12,000 FEET
WITH NO SIGNIFICANT WEATHER AND/OR OBSTRUCTIONS TO VISIBILITY.

KYZ001>023-026-027-061>063-070>075-020700-
WESTERN AND SOUTH CENTRAL KENTUCKY

CITY           SKY/WX    TMP DP  RH WIND       PRES   REMARKS
PADUCAH        CLOUDY    72  67  84 S10       29.88F THUNDER
HENDERSON      CLOUDY    72  68  88 SE6       29.88F
OWENSBORO      LGT RAIN  73  72  94 S5        29.91F FOG
HOPKINSVILLE   MOCLDY    71  68  90 SW14      29.91F
BOWLING GREEN  LGT RAIN  71  66  84 SE6       29.94F
GLASGOW        NOT AVBL
$$

KYZ024-025-028>034-038-045-046-053-020700-
NORTH CENTRAL KENTUCKY

CITY           SKY/WX    TMP DP  RH WIND       PRES   REMARKS
LOUISVILLE/SDF LGT RAIN  73  70  90 SW3       29.91S
LOUISVILLE/LOU RAIN      71  70  96 CALM      29.92S FOG
FORT KNOX      CLOUDY    70  68  93 S5        29.91F
$$

KYZ035>037-039>044-047>052-055>060-089>105-020700-
NORTHEAST KENTUCKY

CITY           SKY/WX    TMP DP  RH WIND       PRES   REMARKS
LEXINGTON      CLOUDY    69  67  93 S7        29.94F FOG
COVINGTON      CLOUDY    67  65  93 S3        29.92F FOG
FRANKFORT      CLOUDY    70  67  90 SW9       29.92F FOG
$$

KYZ054-064>069-076>088-106>120-020700-
SOUTHEAST KENTUCKY

CITY           SKY/WX    TMP DP  RH WIND       PRES   REMARKS
JACKSON        CLOUDY    68  65  90 CALM      29.97F
LONDON         CLOUDY    68  63  84 SW3       29.99S
SOMERSET       NOT AVBL
MIDDLESBORO    NOT AVBL
MONTICELLO     CLEAR     66  66 100 CALM      29.99F
$$



USA.gov is the U.S. government's official web portal to all federal, state and local government web resources and services.